COSMOS 1275 DEB

Satellite information

Favourite Embed

Satellite Type and Status

DEBRISIN ORBIT

Key statistics

Satellite COSMOS 1275 DEB at a glance.

Uptime

16264

Days in orbit

Revolutions

≈ 13.8

Per day

Orbit

LEO

Low Earth Orbit

Inclination

82.9

Latest

Satellite identification and parameters

Extended collection of information and parameters for COSMOS 1275 DEB.

Object identification

Identified? True

Debris? True

Object name: COSMOS 1275 DEB

International designator: 1981-053BA

Object number (NORAD): 12706

Object ID (CCSDS): 12706

Country: COMMONWEALTH OF INDEPENDENT STATES (CIS)

Current information (Y/N): Y

RCS size: SMALL

Orbital parameters

Period: 104.28 minutes

Inclination: 82.8804 deg

SMA: 7338.862 km

Apoapsis: 1039.173 km

Periapsis: 882.282 km

RAAN: 80.2031 deg

Eccentricy: 0.01068907

Argument of periapsis: 197.5346 deg

Mean anomaly: 315.7808 deg

Mean motion: 13.80891775 rev/day

Mean motion (dot): 0.00002822 rev/day2

B* drag term: 0.002551538 1/REarth

Two-line elements (TLE)

Creation date: Dec. 14, 2025, 3:07 a.m.

Reference frame: TEME

Reference center: EARTH

Epoch: Dec. 13, 2025, 5:05 p.m. UTC

TLE line 0: 0 COSMOS 1275 DEB

TLE line 1: 1 12706U 81053BA 25347.71211278 .00002822 00000-0 25515-2 0 9997

TLE line 2: 2 12706 82.8804 80.2031 0106891 197.5346 315.7808 13.80891775213481

Live tracking on map

Real-time ground track for satellite COSMOS 1275 DEB.

In-orbit conjunctions

A list of the most updated potential collisions computed for object COSMOS 1275 DEB.

Target Orbit TCA Probability of collision Miss distance Type
LANDSAT 1 (ERTS 1) SSO 2025-02-21 06:54:44 0.0001599092 309.0 (m) PAYLOAD
COSMOS 1275 DEB LEO 2024-08-18 20:53:40 0.0001344753 290.0 (m) DEBRIS
EXPLORER 22 LEO 2024-06-27 17:40:56 0.001039428 216.0 (m) PAYLOAD
FENGYUN 1C DEB SSO 2024-06-22 18:13:57 0.0001202111 77.0 (m) DEBRIS

Associated space launch

Navigation satellite providing location information for the Tsiklon-B navigation system

COSMOS 1275 DEB was lifted into orbit during the mission ‘Kosmos-3M | Parus 27’, on board a Kosmos-3M space rocket.

The launch took place on June 4, 1981, 3:41 p.m. from 132/2.

For more information about the launch, click the button.

Launch to space Kosmos-3M | Parus 27
Kosmos-3M | Parus 27

Agency: N/A

Status: Launch Successful

Launch date: June 4, 1981, 3:41 p.m. UTC

Rocket: Kosmos-3M

Launch pad: 132/2

Location: Plesetsk Cosmodrome, Russian Federation

...

Latest news about this satellite

There are no fresh news available about this satellite. Check back as we update our databases every day.


Newsletter sign-up

Weekly statistics, charts and insights to help you stay on top of the space industry.